Location: Cahas Mountain Overlook
(37.0833°N, 80.1000°W)
Time: 08:55:32
(UTC-05:00)

S-56A Canister/Altair - Pass Details

Date: 29 November 2023
Orbit: 640 x 2488 km, 38.9° (Epoch: 25 February)

Event Time Altitude Azimuth Distance (km) Brightness Sun altitude
Rises 21:51:30 0° 265° (W) 4,447 11.9 -56.6°
Enters shadow 21:58:47 10° 227° (SW) 4,051 11.3 -57.9°
Reaches altitude 10° 21:58:52 10° 226° (SW) 4,055 - -57.9°
Maximum altitude 21:59:56 10° 220° (SW) 4,118 - -58.1°
Drops below altitude 10° 22:01:02 10° 215° (SW) 4,210 - -58.3°
Sets 22:10:31 0° 179° (S) 5,768 - -60.1°
